Vorticity
5 12 -1 1 -7 -2 8 -10 2 -1 17 -0 8 2 -9 7 10 3 14 6 4 2 3 10 8 9 11 6 10 5 2 5 4 5 5 5 5 6 4 5 15 1 5 4
8 11 17 7 -0 -17 12 4 -2 43 18 14 -10 11 7 9 1 7 5 -4 5 7 6 9 11 8 9 8 5 6 12 9 8 11 13 10 3 7 16 24 15 4 6 6
7 7 17 -6 6 11 23 -1 -1 -1 1 3 11 -1 3 1 9 5 5 12 13 10 11 7 12 12 7 6 8 6 4 5 3 4 9 7 9 17 7 5 1 8 5 -1
9 5 15 -3 7 -2 14 6 1 -3 9 3 5 19 8 10 13 2 20 6 7 15 13 15 13 9 6 19 9 6 3 5 2 0 6 6 15 2 6 6 2 5 5 3
14 5 7 8 5 3 11 8 -12 -1 18 1 6 1 4 23 35 5 6 -3 1 5 6 6 13 7 -1 4 13 6 6 8 11 8 5 7 12 -4 5 5 4 4 6 6
8 9 6 8 29 1 -6 29 -16 27 8 1 43 23 31 -3 11 2 -1 8 -0 11 14 7 10 9 6 7 8 6 11 8 10 4 7 9 -2 5 9 4 1 4 5 8
7 10 6 6 15 12 3 -2 26 -6 -5 -11 5 4 -16 -2 23 6 17 40 9 -6 16 6 16 14 7 7 13 10 14 13 15 -2 8 13 11 10 -0 6 4 3 4 6
6 6 13 3 8 5 12 7 11 -5 1 10 5 -1 10 59 17 -39 12 12 18 -20 8 15 11 16 11 10 13 6 6 13 14 4 5 7 6 5 3 4 5 4 5 10
10 13 -5 -12 4 7 12 10 19 2 2 -4 6 4 23 13 -33 -1 7 26 4 7 7 16 6 4 5 3 6 10 6 6 8 7 8 13 9 8 9 10 8 9 9 7
9 12 5 10 9 15 21 12 -1 8 -0 11 1 4 -25 10 1 52 -61 10 13 5 0 3 5 7 7 9 13 12 5 5 8 7 5 6 3 8 13 10 10 6 6 5
12 8 19 -17 5 5 9 19 1 22 -2 11 2 28 26 15 -1 7 -2 8 29 3 3 4 3 7 7 4 15 16 14 11 10 8 9 8 4 7 9 6 5 6 7 5
20 18 14 -0 -6 3 0 13 4 25 -3 -9 2 -37 4 7 -1 12 -19 27 9 3 3 3 0 2 5 8 12 11 13 13 11 10 11 11 11 11 8 9 10 7 4 6
19 2 9 13 4 -2 2 3 33 1 8 -4 -3 2 7 21 4 6 -5 3 23 12 15 7 5 4 5 4 10 8 8 8 10 12 13 9 5 5 5 7 10 8 7 4
2 13 -0 4 22 12 2 -6 -6 42 -1 19 -6 -4 7 -5 35 13 -25 -5 -3 11 3 18 9 6 11 5 4 3 4 7 7 5 6 5 5 9 15 13 13 8 5 6
17 17 19 4 7 6 2 -3 10 2 10 18 -2 -6 4 -5 -6 -5 -4 11 9 -4 15 7 23 13 10 13 8 6 18 12 18 16 12 9 9 11 9 6 7 7 3 4
26 18 17 12 7 18 1 0 -1 6 6 54 -6 1 7 14 8 20 25 -3 0 -5 13 6 13 7 7 15 7 8 2 2 10 7 4 4 5 4 5 7 9 12 9 5
-1 20 20 8 14 28 -0 -7 1 -2 5 1 35 7 -26 6 14 29 13 6 2 0 4 11 3 7 5 2 0 3 4 1 -1 -1 3 2 1 3 2 2 7 12 9 11
6 1 -3 15 17 16 30 12 0 17 13 1 2 2 -6 12 10 -9 4 2 -15 -4 -1 9 -10 10 5 2 1 4 3 3 4 9 6 2 1 1 -2 4 17 -3 18 8
18 7 25 4 19 21 11 7 13 9 4 -11 11 18 -0 6 2 -1 -0 0 0 2 8 8 -2 15 8 1 0 4 2 -1 5 8 7 4 3 4 4 5 5 9 10 23
17 -7 -15 -1 -2 9 1 9 8 18 -6 7 18 -3 7 4 7 10 9 4 10 3 11 9 4 16 7 8 5 7 9 1 1 2 6 5 4 0 4 2 9 25 29 -1
-1 3 7 1 37 0 -5 6 4 13 10 -0 12 -1 9 14 13 6 -1 5 4 33 19 17 18 14 8 7 16 13 5 2 1 2 5 3 4 5 4 -1 26 6 8 24
7 6 1 7 -8 19 4 -2 15 10 6 20 13 10 2 -5 -2 9 5 4 4 15 14 10 8 10 15 8 8 2 4 6 2 7 1 1 9 10 -4 23 16 -3 3 -1
3 11 12 -13 8 -26 22 3 -6 17 -7 -7 6 40 12 -2 7 -2 9 12 11 14 12 8 10 16 12 20 1 8 6 7 4 2 1 4 3 22 2 -46 54 -5 3 5
-2 28 12 -12 1 16 -12 -8 24 8 -4 7 -12 -11 22 5 -0 1 -3 1 5 12 9 9 8 9 18 12 4 10 12 12 8 10 8 -4 -7 -28 63 11 3 43 9 17
-6 -12 125 1 -3 -4 13 5 10 7 12 -3 -10 -6 -23 -3 38 6 9 4 5 10 8 5 5 11 4 12 16 -7 24 82 63 8 9 23 26 61 -3 7 -9 -12 23 26
12 19 6 23 46 92 -13 -8 -13 24 19 34 -7 -20 -25 34 54 12 -10 -0 10 9 11 10 11 -1 5 4 -1 21 -3 38 -138 -77 59 -62 13 -5 4 1 14 -2 37 24
Height
5909 5908 5907 5907 5911 5915 5916 5909 5913 5918 5916 5914 5905 5898 5898 5902 5900 5905 5910 5910 5908 5908 5909 5908 5908 5907 5908 5908 5908 5907 5907 5908 5908 5907 5906 5904 5903 5903 5902 5900 5898 5898 5897 5893
5908 5907 5907 5907 5910 5916 5918 5919 5911 5914 5915 5913 5907 5906 5904 5899 5905 5906 5906 5912 5911 5910 5909 5908 5908 5907 5908 5907 5907 5907 5907 5908 5908 5907 5905 5904 5903 5902 5900 5898 5897 5896 5894 5889
5905 5906 5906 5908 5912 5914 5920 5919 5914 5914 5913 5908 5904 5909 5906 5905 5908 5909 5909 5908 5911 5911 5909 5908 5908 5908 5908 5907 5906 5906 5906 5907 5907 5906 5905 5903 5902 5902 5901 5899 5897 5895 5893 5888
5903 5904 5905 5906 5910 5917 5917 5919 5915 5915 5912 5907 5910 5910 5910 5910 5911 5910 5908 5908 5909 5909 5908 5908 5907 5907 5907 5907 5906 5905 5905 5906 5905 5905 5904 5902 5902 5901 5899 5897 5895 5894 5891 5886
5902 5901 5903 5904 5907 5911 5913 5916 5916 5912 5905 5905 5906 5907 5909 5908 5909 5910 5905 5904 5904 5904 5905 5908 5907 5906 5907 5906 5904 5902 5903 5904 5903 5904 5903 5901 5900 5900 5900 5897 5896 5894 5892 5889
5898 5899 5900 5902 5904 5907 5909 5911 5913 5911 5908 5907 5901 5906 5907 5907 5905 5905 5903 5901 5899 5900 5903 5904 5905 5905 5906 5906 5904 5902 5902 5902 5903 5903 5902 5901 5900 5898 5897 5896 5896 5893 5891 5889
5895 5897 5898 5900 5903 5904 5905 5908 5909 5910 5908 5906 5901 5902 5903 5898 5896 5892 5896 5885 5889 5900 5903 5901 5904 5903 5905 5904 5903 5901 5901 5901 5902 5902 5901 5901 5899 5897 5895 5895 5893 5892 5890 5889
5890 5893 5896 5899 5900 5902 5902 5904 5907 5908 5909 5904 5901 5902 5901 5895 5895 5894 5894 5894 5887 5860 5900 5901 5903 5904 5904 5904 5905 5902 5901 5901 5901 5901 5900 5899 5898 5897 5895 5893 5893 5891 5890 5887
5886 5889 5889 5894 5895 5899 5901 5900 5904 5907 5908 5905 5902 5897 5898 5895 5885 5893 5890 5894 5896 5901 5901 5901 5902 5901 5903 5902 5901 5902 5901 5900 5900 5899 5898 5897 5896 5895 5894 5892 5890 5890 5888 5886
5883 5884 5885 5890 5891 5893 5896 5900 5900 5902 5904 5902 5901 5896 5895 5896 5889 5893 5899 5897 5897 5900 5900 5899 5900 5900 5901 5902 5902 5902 5901 5899 5898 5897 5896 5895 5895 5894 5892 5891 5889 5887 5885 5883
5877 5879 5884 5883 5885 5890 5893 5894 5895 5897 5899 5900 5898 5893 5891 5889 5891 5893 5897 5895 5896 5899 5901 5901 5901 5901 5901 5899 5900 5899 5898 5897 5896 5895 5895 5894 5892 5891 5889 5888 5886 5884 5882 5880
5871 5873 5876 5879 5883 5885 5888 5890 5891 5894 5898 5898 5894 5892 5893 5890 5888 5887 5889 5895 5894 5898 5899 5900 5900 5901 5900 5899 5899 5898 5896 5895 5894 5893 5892 5891 5890 5888 5887 5885 5883 5880 5878 5876
5866 5867 5869 5873 5878 5880 5883 5885 5888 5889 5892 5893 5894 5890 5890 5887 5885 5881 5884 5893 5896 5896 5897 5896 5897 5897 5898 5896 5895 5895 5894 5893 5892 5891 5890 5889 5887 5885 5883 5882 5880 5878 5875 5873
5858 5861 5864 5866 5873 5878 5880 5883 5885 5887 5886 5889 5891 5888 5885 5883 5884 5884 5890 5893 5894 5894 5894 5893 5893 5893 5895 5894 5894 5893 5892 5891 5889 5888 5887 5886 5884 5883 5881 5879 5877 5874 5871 5868
5853 5855 5860 5862 5865 5870 5873 5876 5880 5880 5882 5884 5886 5882 5881 5882 5873 5885 5887 5890 5890 5889 5889 5890 5889 5889 5890 5891 5890 5889 5888 5887 5885 5884 5883 5882 5880 5878 5876 5874 5871 5868 5865 5862
5844 5845 5850 5854 5858 5862 5864 5869 5873 5876 5878 5879 5881 5877 5880 5873 5872 5873 5882 5884 5884 5885 5886 5886 5886 5886 5886 5886 5886 5885 5884 5882 5881 5880 5879 5878 5876 5874 5872 5869 5867 5864 5861 5859
5838 5841 5843 5846 5852 5856 5857 5863 5867 5869 5872 5874 5875 5878 5877 5872 5874 5874 5875 5876 5877 5877 5883 5884 5884 5883 5883 5882 5882 5881 5880 5879 5878 5877 5875 5873 5871 5869 5867 5864 5861 5858 5855 5851
5832 5835 5838 5840 5846 5847 5856 5860 5863 5865 5868 5870 5871 5874 5873 5870 5869 5870 5870 5869 5871 5872 5874 5880 5880 5880 5879 5879 5879 5878 5876 5875 5874 5872 5869 5868 5866 5863 5861 5858 5855 5851 5848 5844
5825 5829 5833 5835 5839 5844 5850 5852 5854 5858 5863 5859 5864 5867 5870 5867 5867 5869 5869 5866 5865 5866 5867 5871 5875 5874 5874 5874 5874 5873 5871 5869 5868 5866 5864 5862 5861 5858 5856 5853 5849 5844 5840 5835
5819 5820 5824 5826 5831 5838 5839 5844 5848 5852 5854 5853 5855 5856 5859 5857 5858 5860 5862 5865 5866 5863 5862 5862 5866 5868 5867 5867 5867 5866 5865 5864 5862 5860 5857 5855 5854 5852 5850 5846 5842 5838 5832 5826
5811 5812 5814 5818 5817 5823 5828 5834 5840 5843 5846 5842 5843 5845 5846 5850 5852 5854 5856 5858 5859 5859 5856 5856 5858 5858 5858 5859 5860 5858 5858 5856 5855 5854 5850 5849 5849 5847 5843 5838 5834 5829 5825 5819
5804 5806 5804 5805 5806 5809 5817 5825 5828 5829 5829 5829 5831 5835 5837 5836 5841 5846 5849 5852 5852 5852 5853 5850 5848 5849 5851 5851 5849 5849 5849 5848 5847 5845 5841 5841 5841 5837 5832 5828 5824 5821 5816 5812
5793 5799 5799 5800 5801 5809 5810 5815 5814 5822 5821 5818 5820 5821 5828 5831 5833 5837 5841 5844 5845 5843 5845 5843 5841 5841 5840 5841 5840 5839 5840 5839 5836 5834 5832 5832 5831 5826 5823 5822 5814 5811 5808 5802
5782 5787 5789 5789 5795 5798 5804 5807 5811 5809 5810 5816 5816 5816 5814 5822 5824 5828 5832 5836 5838 5837 5836 5835 5835 5832 5832 5832 5825 5809 5824 5825 5822 5819 5820 5818 5818 5818 5815 5813 5807 5804 5800 5794
5778 5779 5782 5783 5788 5792 5796 5799 5803 5802 5804 5805 5805 5806 5808 5816 5822 5823 5824 5827 5830 5831 5828 5829 5825 5825 5824 5826 5825 5819 5799 5793 5784 5798 5805 5807 5807 5809 5807 5802 5800 5797 5792 5785
5773 5775 5778 5779 5778 5780 5792 5791 5793 5793 5793 5790 5795 5802 5802 5807 5812 5814 5817 5820 5823 5821 5820 5821 5817 5816 5816 5817 5817 5816 5810 5808 5795 5796 5802 5803 5804 5801 5799 5795 5791 5787 5782 5777